Location: Oshawa
(43.9000°N, 78.8670°W)
Time: 17:30:15
(UTC-04:00)

ITAMSAT 1 - Visible Passes

Search period start: 24 April 2014 00:00
Search period end: 04 May 2014 00:00
Orbit: 784 x 799 km, 98.7° (Epoch: 22 April)

Date Brightness Start Highest point End Pass type
(mag) Time Alt. Az. Time Alt. Az. Time Alt. Az.
24 Apr 10.0 02:05:12 10° ENE 02:07:18 12° E 02:07:45 12° E visible
24 Apr 7.5 03:42:15 10° NNE 03:47:27 84° WNW 03:48:31 58° SSW visible
24 Apr 9.6 05:24:01 10° NNW 05:26:09 13° WNW 05:28:17 10° W visible
25 Apr 8.1 03:13:17 10° NNE 03:18:22 54° E 03:19:12 48° SE visible
25 Apr 9.1 04:53:38 10° NNW 04:57:29 22° WNW 04:59:58 16° W visible
26 Apr 9.0 02:44:39 10° NE 02:49:10 30° E 02:49:53 29° ESE visible
26 Apr 8.4 04:23:59 10° N 04:28:42 37° WNW 04:30:39 27° WSW visible
27 Apr 9.8 02:16:38 10° NE 02:19:50 16° E 02:20:34 16° E visible
27 Apr 7.7 03:54:39 10° N 03:59:48 66° WNW 04:01:20 44° SW visible
28 Apr 7.8 03:25:35 10° NNE 03:30:46 70° ESE 03:32:01 50° SSE visible
28 Apr 9.4 05:06:25 10° NNW 05:09:42 17° WNW 05:12:47 11° W visible
29 Apr 8.6 02:56:47 10° NNE 03:01:37 38° E 03:02:42 34° SE visible
29 Apr 8.7 04:36:33 10° N 04:40:59 29° WNW 04:43:27 20° WSW visible
30 Apr 9.4 02:28:26 10° NE 02:32:20 21° E 02:33:22 20° ESE visible
30 Apr 8.0 04:07:06 10° N 04:12:07 51° WNW 04:14:08 33° SW visible
01 May 10.1 02:01:27 10° ENE 02:02:55 11° E 02:04:03 10° E visible
01 May 7.6 03:37:55 10° NNE 03:43:08 89° ESE 03:44:49 45° SSW visible
01 May 9.6 05:19:22 10° NNW 05:21:54 14° WNW 05:24:26 10° W visible
02 May 8.3 03:09:00 10° NNE 03:14:02 49° E 03:15:29 38° SE visible
02 May 9.0 04:49:11 10° NNW 04:53:13 24° WNW 04:56:15 14° WSW visible
03 May 9.1 02:40:25 10° NE 02:44:48 27° E 02:46:09 24° ESE visible
03 May 8.3 04:19:35 10° N 04:24:25 40° WNW 04:26:55 24° WSW visible
